Time,TemperatureF,DewpointF,PressureIn,WindDirection,WindDirectionDegrees,WindSpeedMPH,WindSpeedGustMPH,Humidity,HourlyPrecipIn,Conditions,Clouds,dailyrainin,SolarRadiationWatts/m^2,SoftwareType,DateUTC
2013-10-08 00:01:00,61.6,61.0,29.97,SE,135,0.0,1.0,96,0.00,,,0.00,0,weatherlink.com 1.10,2013-10-08 04:01:00,
2013-10-08 00:16:00,61.1,60.0,29.98,SSE,159,0.0,3.0,95,0.00,,,0.00,0,weatherlink.com 1.10,2013-10-08 04:16:00,
2013-10-08 00:31:00,60.5,59.0,29.99,SSW,197,0.0,1.0,94,0.00,,,0.00,0,weatherlink.com 1.10,2013-10-08 04:31:00,
2013-10-08 00:46:00,59.5,58.0,29.99,SW,223,0.0,2.0,94,0.00,,,0.00,0,weatherlink.com 1.10,2013-10-08 04:46:00,
2013-10-08 01:01:00,58.5,57.0,30.00,SE,140,0.0,0.0,93,0.00,,,0.00,0,weatherlink.com 1.10,2013-10-08 05:01:00,
2013-10-08 01:16:00,57.5,56.0,30.01,ESE,113,0.0,1.0,93,0.00,,,0.00,0,weatherlink.com 1.10,2013-10-08 05:16:00,
2013-10-08 01:31:00,56.9,55.0,30.01,East,96,1.0,4.0,93,0.00,,,0.00,0,weatherlink.com 1.10,2013-10-08 05:31:00,
2013-10-08 01:46:00,56.4,55.0,30.02,NE,47,0.0,3.0,93,0.00,,,0.00,0,weatherlink.com 1.10,2013-10-08 05:46:00,
2013-10-08 02:01:00,55.9,54.0,30.03,ENE,73,0.0,2.0,92,0.00,,,0.00,0,weatherlink.com 1.10,2013-10-08 06:01:00,
2013-10-08 02:17:00,55.4,54.0,30.04,South,186,0.0,2.0,93,0.00,,,0.00,0,weatherlink.com 1.10,2013-10-08 06:17:00,
2013-10-08 02:32:00,55.0,53.0,30.04,ESE,123,0.0,1.0,94,0.00,,,0.00,0,weatherlink.com 1.10,2013-10-08 06:32:00,
2013-10-08 02:47:00,54.6,53.0,30.05,ESE,121,0.0,1.0,93,0.00,,,0.00,0,weatherlink.com 1.10,2013-10-08 06:47:00,
2013-10-08 03:02:00,54.3,52.0,30.05,ESE,109,0.0,2.0,92,0.00,,,0.00,0,weatherlink.com 1.10,2013-10-08 07:02:00,
2013-10-08 03:17:00,53.9,51.0,30.06,ENE,71,0.0,3.0,91,0.00,,,0.00,0,weatherlink.com 1.10,2013-10-08 07:17:00,
2013-10-08 03:32:00,53.5,51.0,30.06,SW,226,0.0,5.0,92,0.00,,,0.00,0,weatherlink.com 1.10,2013-10-08 07:32:00,
2013-10-08 03:47:00,53.4,52.0,30.07,SSW,197,0.0,1.0,93,0.00,,,0.00,0,weatherlink.com 1.10,2013-10-08 07:47:00,
2013-10-08 04:02:00,53.2,51.0,30.07,South,170,0.0,1.0,93,0.00,,,0.00,0,weatherlink.com 1.10,2013-10-08 08:02:00,
2013-10-08 04:17:00,52.8,51.0,30.08,South,170,0.0,0.0,93,0.00,,,0.00,0,weatherlink.com 1.10,2013-10-08 08:17:00,
2013-10-08 04:32:00,52.3,51.0,30.09,SW,231,0.0,2.0,94,0.00,,,0.00,0,weatherlink.com 1.10,2013-10-08 08:32:00,
2013-10-08 04:47:00,52.0,50.0,30.10,WSW,254,1.0,3.0,94,0.00,,,0.00,0,weatherlink.com 1.10,2013-10-08 08:47:00,
2013-10-08 05:02:00,51.6,50.0,30.11,WSW,251,0.0,2.0,94,0.00,,,0.00,0,weatherlink.com 1.10,2013-10-08 09:02:00,
2013-10-08 05:17:00,51.2,50.0,30.11,WSW,251,0.0,1.0,94,0.00,,,0.00,0,weatherlink.com 1.10,2013-10-08 09:17:00,
2013-10-08 05:32:00,50.6,49.0,30.12,SSE,167,0.0,3.0,93,0.00,,,0.00,0,weatherlink.com 1.10,2013-10-08 09:32:00,
2013-10-08 05:47:00,50.3,49.0,30.13,SSE,167,0.0,0.0,94,0.00,,,0.00,0,weatherlink.com 1.10,2013-10-08 09:47:00,
2013-10-08 06:02:00,49.9,48.0,30.13,SSE,153,0.0,1.0,94,0.00,,,0.00,0,weatherlink.com 1.10,2013-10-08 10:02:00,
2013-10-08 06:17:00,50.0,48.0,30.14,SSE,165,0.0,3.0,93,0.00,,,0.00,0,weatherlink.com 1.10,2013-10-08 10:17:00,
2013-10-08 06:32:00,50.0,48.0,30.15,SSE,166,0.0,1.0,93,0.00,,,0.00,0,weatherlink.com 1.10,2013-10-08 10:32:00,
2013-10-08 06:47:00,49.4,48.0,30.15,East,93,0.0,2.0,93,0.00,,,0.00,0,weatherlink.com 1.10,2013-10-08 10:47:00,
2013-10-08 07:03:00,49.6,48.0,30.16,East,93,0.0,1.0,94,0.00,,,0.00,11,weatherlink.com 1.10,2013-10-08 11:03:00,
2013-10-08 07:17:00,49.7,48.0,30.17,ENE,71,0.0,1.0,93,0.00,,,0.00,14,weatherlink.com 1.10,2013-10-08 11:17:00,
2013-10-08 07:32:00,50.0,48.0,30.17,West,271,0.0,2.0,94,0.00,,,0.00,26,weatherlink.com 1.10,2013-10-08 11:32:00,
2013-10-08 07:47:00,50.5,49.0,30.18,East,97,0.0,3.0,93,0.00,,,0.00,30,weatherlink.com 1.10,2013-10-08 11:47:00,
2013-10-08 08:02:00,51.0,49.0,30.19,East,87,0.0,4.0,92,0.00,,,0.00,33,weatherlink.com 1.10,2013-10-08 12:02:00,
2013-10-08 08:17:00,51.8,49.0,30.20,East,97,1.0,4.0,89,0.00,,,0.00,25,weatherlink.com 1.10,2013-10-08 12:17:00,
2013-10-08 08:32:00,52.0,48.0,30.21,SW,215,0.0,7.0,87,0.00,,,0.00,26,weatherlink.com 1.10,2013-10-08 12:32:00,
2013-10-08 08:48:00,52.8,49.0,30.21,SE,126,0.0,3.0,86,0.00,,,0.00,272,weatherlink.com 1.10,2013-10-08 12:48:00,
2013-10-08 09:03:00,56.3,50.0,30.22,SSW,205,0.0,6.0,80,0.00,,,0.00,357,weatherlink.com 1.10,2013-10-08 13:03:00,
2013-10-08 09:18:00,58.6,52.0,30.22,West,281,0.0,4.0,79,0.00,,,0.00,411,weatherlink.com 1.10,2013-10-08 13:18:00,
2013-10-08 09:33:00,60.5,52.0,30.23,North,10,0.0,4.0,74,0.00,,,0.00,457,weatherlink.com 1.10,2013-10-08 13:33:00,
2013-10-08 09:48:00,62.3,52.0,30.23,WSW,240,0.0,5.0,69,0.00,,,0.00,501,weatherlink.com 1.10,2013-10-08 13:48:00,
2013-10-08 10:03:00,63.4,53.0,30.24,West,277,1.0,5.0,69,0.00,,,0.00,557,weatherlink.com 1.10,2013-10-08 14:03:00,
2013-10-08 10:18:00,65.9,55.0,30.24,NW,323,0.0,3.0,69,0.00,,,0.00,587,weatherlink.com 1.10,2013-10-08 14:18:00,
2013-10-08 10:33:00,66.5,52.0,30.24,ENE,72,1.0,5.0,61,0.00,,,0.00,591,weatherlink.com 1.10,2013-10-08 14:33:00,
2013-10-08 10:48:00,67.4,51.0,30.24,East,94,2.0,7.0,56,0.00,,,0.00,606,weatherlink.com 1.10,2013-10-08 14:48:00,
2013-10-08 11:03:00,67.3,49.0,30.24,North,5,2.0,5.0,53,0.00,,,0.00,693,weatherlink.com 1.10,2013-10-08 15:03:00,
2013-10-08 11:18:00,68.3,49.0,30.25,South,188,3.0,6.0,51,0.00,,,0.00,752,weatherlink.com 1.10,2013-10-08 15:18:00,
2013-10-08 11:33:00,68.9,48.0,30.25,NW,325,1.0,4.0,48,0.00,,,0.00,758,weatherlink.com 1.10,2013-10-08 15:33:00,
2013-10-08 11:48:00,69.2,51.0,30.25,NW,311,1.0,6.0,53,0.01,,,0.01,645,weatherlink.com 1.10,2013-10-08 15:48:00,
2013-10-08 12:03:00,70.1,49.0,30.25,South,176,0.0,7.0,47,0.01,,,0.01,754,weatherlink.com 1.10,2013-10-08 16:03:00,
2013-10-08 12:18:00,70.8,52.0,30.25,ENE,58,0.0,7.0,52,0.01,,,0.01,661,weatherlink.com 1.10,2013-10-08 16:18:00,
2013-10-08 12:33:00,70.8,49.0,30.25,NW,306,1.0,7.0,46,0.01,,,0.01,758,weatherlink.com 1.10,2013-10-08 16:33:00,
2013-10-08 12:48:00,68.9,51.0,30.25,WNW,288,0.0,10.0,54,0.00,,,0.01,503,weatherlink.com 1.10,2013-10-08 16:48:00,
2013-10-08 13:18:00,69.2,52.0,30.24,NNE,17,0.0,4.0,55,0.00,,,0.01,735,weatherlink.com 1.10,2013-10-08 17:18:00,
2013-10-08 13:33:00,70.5,53.0,30.24,NW,315,0.0,3.0,54,0.00,,,0.01,606,weatherlink.com 1.10,2013-10-08 17:33:00,
2013-10-08 13:48:00,72.0,49.0,30.24,NW,304,0.0,3.0,44,0.00,,,0.01,608,weatherlink.com 1.10,2013-10-08 17:48:00,
2013-10-08 14:03:00,73.0,54.0,30.24,West,274,0.0,4.0,51,0.00,,,0.01,710,weatherlink.com 1.10,2013-10-08 18:03:00,
2013-10-08 14:18:00,74.0,52.0,30.23,WNW,296,1.0,5.0,47,0.00,,,0.01,684,weatherlink.com 1.10,2013-10-08 18:18:00,
2013-10-08 14:33:00,73.6,52.0,30.24,NW,323,0.0,3.0,47,0.00,,,0.01,515,weatherlink.com 1.10,2013-10-08 18:33:00,
2013-10-08 14:48:00,73.1,52.0,30.25,NW,311,0.0,4.0,47,0.00,,,0.01,171,weatherlink.com 1.10,2013-10-08 18:48:00,
2013-10-08 15:03:00,70.9,48.0,30.25,NE,48,1.0,6.0,45,0.00,,,0.01,599,weatherlink.com 1.10,2013-10-08 19:03:00,
2013-10-08 15:18:00,71.8,49.0,30.25,NNE,22,0.0,4.0,45,0.00,,,0.01,443,weatherlink.com 1.10,2013-10-08 19:18:00,
2013-10-08 15:33:00,71.1,49.0,30.26,WNW,302,1.0,2.0,46,0.00,,,0.01,369,weatherlink.com 1.10,2013-10-08 19:33:00,
2013-10-08 15:48:00,72.1,50.0,30.26,NNW,342,1.0,2.0,46,0.00,,,0.01,369,weatherlink.com 1.10,2013-10-08 19:48:00,
2013-10-08 16:03:00,71.6,48.0,30.27,East,79,0.0,2.0,43,0.00,,,0.01,274,weatherlink.com 1.10,2013-10-08 20:03:00,
2013-10-08 16:19:00,69.3,49.0,30.27,East,98,0.0,2.0,49,0.00,,,0.01,271,weatherlink.com 1.10,2013-10-08 20:19:00,
2013-10-08 16:34:00,69.2,50.0,30.27,East,98,0.0,1.0,51,0.00,,,0.01,167,weatherlink.com 1.10,2013-10-08 20:34:00,
2013-10-08 16:49:00,66.7,49.0,30.27,East,99,0.0,1.0,54,0.00,,,0.01,155,weatherlink.com 1.10,2013-10-08 20:49:00,
2013-10-08 17:04:00,64.9,49.0,30.28,ESE,106,0.0,2.0,56,0.00,,,0.01,58,weatherlink.com 1.10,2013-10-08 21:04:00,
2013-10-08 17:19:00,62.2,50.0,30.29,ESE,106,0.0,0.0,65,0.00,,,0.01,47,weatherlink.com 1.10,2013-10-08 21:19:00,
2013-10-08 17:34:00,60.1,49.0,30.29,ESE,106,0.0,0.0,68,0.00,,,0.01,35,weatherlink.com 1.10,2013-10-08 21:34:00,
2013-10-08 17:49:00,58.3,49.0,30.29,ESE,106,0.0,0.0,71,0.00,,,0.01,21,weatherlink.com 1.10,2013-10-08 21:49:00,
2013-10-08 18:04:00,57.1,47.0,30.29,ESE,106,0.0,0.0,70,0.00,,,0.01,7,weatherlink.com 1.10,2013-10-08 22:04:00,
2013-10-08 18:19:00,56.0,47.0,30.30,ESE,106,0.0,0.0,71,0.00,,,0.01,0,weatherlink.com 1.10,2013-10-08 22:19:00,
2013-10-08 18:34:00,55.2,47.0,30.30,ESE,106,0.0,0.0,74,0.00,,,0.01,0,weatherlink.com 1.10,2013-10-08 22:34:00,
2013-10-08 18:49:00,54.0,47.0,30.31,ESE,106,0.0,0.0,78,0.00,,,0.01,0,weatherlink.com 1.10,2013-10-08 22:49:00,
2013-10-08 19:04:00,53.3,47.0,30.32,ESE,106,0.0,0.0,79,0.00,,,0.01,0,weatherlink.com 1.10,2013-10-08 23:04:00,
2013-10-08 19:19:00,52.4,46.0,30.32,ESE,106,0.0,0.0,79,0.00,,,0.01,0,weatherlink.com 1.10,2013-10-08 23:19:00,
2013-10-08 19:34:00,51.7,46.0,30.32,ESE,106,0.0,0.0,82,0.00,,,0.01,0,weatherlink.com 1.10,2013-10-08 23:34:00,
2013-10-08 19:49:00,51.3,47.0,30.33,ESE,106,0.0,0.0,84,0.00,,,0.01,0,weatherlink.com 1.10,2013-10-08 23:49:00,
2013-10-08 20:04:00,51.0,47.0,30.34,ESE,106,0.0,0.0,86,0.00,,,0.01,0,weatherlink.com 1.10,2013-10-09 00:04:00,
2013-10-08 20:19:00,51.3,47.0,30.35,ESE,106,0.0,0.0,85,0.00,,,0.01,0,weatherlink.com 1.10,2013-10-09 00:19:00,
2013-10-08 20:34:00,51.6,47.0,30.35,ESE,106,0.0,0.0,83,0.00,,,0.01,0,weatherlink.com 1.10,2013-10-09 00:34:00,
2013-10-08 20:49:00,51.7,47.0,30.35,ESE,106,0.0,0.0,83,0.00,,,0.01,0,weatherlink.com 1.10,2013-10-09 00:49:00,
2013-10-08 21:04:00,51.5,47.0,30.35,ESE,106,0.0,0.0,83,0.00,,,0.01,0,weatherlink.com 1.10,2013-10-09 01:04:00,
2013-10-08 21:19:00,51.5,47.0,30.36,ESE,106,0.0,0.0,83,0.00,,,0.01,0,weatherlink.com 1.10,2013-10-09 01:19:00,
2013-10-08 21:34:00,51.4,46.0,30.36,ESE,106,0.0,0.0,82,0.00,,,0.01,0,weatherlink.com 1.10,2013-10-09 01:34:00,
2013-10-08 21:49:00,51.3,46.0,30.37,ESE,106,0.0,0.0,81,0.00,,,0.00,0,weatherlink.com 1.10,2013-10-09 01:49:00,
2013-10-08 22:04:00,51.1,46.0,30.38,ESE,106,0.0,0.0,82,0.00,,,0.00,0,weatherlink.com 1.10,2013-10-09 02:04:00,
2013-10-08 22:19:00,51.0,46.0,30.38,ESE,106,0.0,0.0,82,0.00,,,0.00,0,weatherlink.com 1.10,2013-10-09 02:19:00,
2013-10-08 22:34:00,50.7,45.0,30.39,ESE,106,0.0,0.0,82,0.00,,,0.00,0,weatherlink.com 1.10,2013-10-09 02:34:00,
2013-10-08 22:49:00,50.4,45.0,30.39,ESE,106,0.0,0.0,82,0.00,,,0.00,0,weatherlink.com 1.10,2013-10-09 02:49:00,
2013-10-08 23:04:00,50.1,45.0,30.38,ESE,106,0.0,0.0,82,0.00,,,0.00,0,weatherlink.com 1.10,2013-10-09 03:04:00,
2013-10-08 23:19:00,49.9,45.0,30.39,ESE,106,0.0,0.0,82,0.00,,,0.00,0,weatherlink.com 1.10,2013-10-09 03:19:00,
2013-10-08 23:34:00,49.5,44.0,30.39,ESE,106,0.0,0.0,82,0.00,,,0.00,0,weatherlink.com 1.10,2013-10-09 03:34:00,
2013-10-08 23:49:00,49.2,44.0,30.39,ESE,106,0.0,0.0,82,0.00,,,0.00,0,weatherlink.com 1.10,2013-10-09 03:49:00,